Date String (YYYY-MM-DD hh:mm:ss) UTC,Instrument flags,absolute air pressure of the measurement (hPa),sample flow rate (lpm),inlet stack bypass flow (lpm),air temperature of the measurement (°C),ambient temperature measured by the external sensor (°C),aerosol sample conditioner tube jacket temperature (°C),OPC LED temperature (°C),internal box temperature (°C),relative humidity of the measurement (%),span deviation,mass concentration of particles derived from Lorenz-Mie calculation of OPC scattering (μg/m³),mass concentration of particles derived from Lorenz-Mie calculation of OPC scattering (μg/m³),mass concentration of particles derived from Lorenz-Mie calculation of OPC scattering (μg/m³)
DateTimeUTC,F1_M11,P_M11,Q1_M11,Q2_M11,T1_M11,T2_M11,T3_M11,T4_M11,T5_M11,U1_M11,ZSPAN_M11,X2_M11,X0_M11,X1_M11
2024-01-29 14:00:00,SystemResetWarning,0836.9,5.01,000.00,022.1,021.1,000.0,030.4,023.5,15.3,0000.0,0000.23,0000.32,0000.20
2024-01-29 14:01:00,SystemResetWarning,0836.9,5.00,000.00,022.1,021.1,000.0,030.4,023.5,15.4,0000.0,0000.23,0001.17,0000.20
2024-01-29 14:02:00,SystemResetWarning,0836.9,4.99,000.00,022.1,021.1,000.0,030.4,023.5,15.5,0000.0,0000.24,0002.13,0000.20
2024-01-29 14:03:00,SystemResetWarning,0836.9,5.00,000.00,022.1,021.1,000.0,030.4,023.5,15.6,0000.0,0000.23,0002.10,0000.21
2024-01-29 14:04:00,SystemResetWarning,0837.0,5.00,000.00,022.1,021.1,000.0,030.4,023.5,15.4,0000.0,0000.23,0002.11,0000.21
2024-01-29 14:05:00,SystemResetWarning,0837.0,4.99,000.00,022.1,021.1,000.0,030.4,023.5,15.4,0000.0,0000.24,0002.12,0000.21
2024-01-29 14:06:00,SystemResetWarning,0837.1,5.00,000.00,022.1,021.1,000.0,030.4,023.5,15.4,0000.0,0000.23,0002.11,0000.21
2024-01-29 14:07:00,SystemResetWarning,0837.1,5.00,000.00,022.1,021.1,000.0,030.4,023.5,15.4,0000.0,0000.23,0002.11,0000.21
2024-01-29 14:08:00,SystemResetWarning,0837.2,5.00,000.00,022.1,021.2,000.0,030.4,023.5,15.3,0000.0,0000.23,0002.10,0000.21
2024-01-29 14:09:00,SystemResetWarning,0837.2,5.00,000.00,022.1,021.2,000.0,030.4,023.5,15.2,0000.0,0000.22,0002.09,0000.20
2024-01-29 14:10:00,SystemResetWarning,0837.2,5.00,000.00,022.1,021.2,000.0,030.4,023.5,15.1,0000.0,0000.22,0002.10,0000.20
2024-01-29 14:11:00,SystemResetWarning,0837.2,5.00,000.00,022.1,021.2,000.0,030.4,023.5,15.2,0000.0,0000.22,0002.10,0000.20
2024-01-29 14:12:00,SystemResetWarning,0837.2,5.00,000.00,022.1,021.2,000.0,030.4,023.5,15.2,0000.0,0000.22,0001.85,0000.20
2024-01-29 14:13:00,SystemResetWarning,0837.2,5.00,000.00,022.1,021.2,000.0,030.4,023.6,15.3,0000.0,0000.22,0000.30,0000.20
2024-01-29 14:14:00,SystemResetWarning,0837.2,5.01,000.00,022.1,021.3,000.0,030.4,023.6,15.2,0000.0,0000.22,0000.28,0000.19
2024-01-29 14:15:00,SystemResetWarning,0837.2,5.00,000.00,022.1,021.3,000.0,030.4,023.6,15.2,0000.0,0000.20,0000.24,0000.19
2024-01-29 14:16:00,SystemResetWarning,0837.2,5.00,000.00,022.1,021.3,000.0,030.4,023.5,15.2,0000.0,0000.20,0000.24,0000.19
2024-01-29 14:17:00,SystemResetWarning,0837.2,4.99,000.00,022.1,021.3,000.0,030.4,023.5,15.3,0000.0,0000.21,0000.25,0000.20
2024-01-29 14:18:00,SystemResetWarning,0837.2,4.99,000.00,022.1,021.3,000.0,030.4,023.5,15.3,0000.0,0000.21,0000.26,0000.20
2024-01-29 14:19:00,SystemResetWarning,0837.2,5.00,000.00,022.1,021.3,000.0,030.4,023.5,15.3,0000.0,0000.21,0000.26,0000.20
2024-01-29 14:20:00,SystemResetWarning,0837.2,4.99,000.00,022.1,021.3,000.0,030.4,023.5,15.3,0000.0,0000.21,0000.26,0000.20
2024-01-29 14:21:00,SystemResetWarning,0837.2,5.00,000.00,022.1,021.3,000.0,030.4,023.5,15.3,0000.0,0000.22,0000.26,0000.21
2024-01-29 14:22:00,SystemResetWarning,0837.2,5.00,000.00,022.1,021.3,000.0,030.4,023.5,15.2,0000.0,0000.22,0000.27,0000.21
2024-01-29 14:23:00,SystemResetWarning,0837.2,5.00,000.00,022.1,021.3,000.0,030.4,023.5,15.3,0000.0,0000.22,0000.26,0000.21
2024-01-29 14:24:00,SystemResetWarning,0837.2,5.01,000.00,022.1,021.3,000.0,030.4,023.5,15.3,0000.0,0000.21,0000.25,0000.20
2024-01-29 14:25:00,SystemResetWarning,0837.2,5.00,000.00,022.1,021.3,000.0,030.4,023.5,15.3,0000.0,0000.22,0000.26,0000.21
2024-01-29 14:26:00,SystemResetWarning,0837.2,4.99,000.00,022.1,021.3,000.0,030.4,023.5,15.3,0000.0,0000.22,0000.26,0000.21
2024-01-29 14:27:00,SystemResetWarning,0837.2,5.00,000.00,022.1,021.3,000.0,030.4,023.5,15.3,0000.0,0000.22,0000.28,0000.20
2024-01-29 14:28:00,SystemResetWarning,0837.2,5.00,000.00,022.1,021.3,000.0,030.4,023.5,15.3,0000.0,0000.24,0000.33,0000.20
2024-01-29 14:29:00,SystemResetWarning,0837.2,4.99,000.00,022.1,021.3,000.0,030.4,023.5,15.3,0000.0,0000.24,0000.33,0000.20
2024-01-29 14:30:00,SystemResetWarning,0837.2,5.00,000.00,022.1,021.3,000.0,030.4,023.5,15.3,0000.0,0000.24,0001.06,0000.20
2024-01-29 14:31:00,SystemResetWarning,0837.2,5.00,000.00,022.1,021.3,000.0,030.4,023.5,15.3,0000.0,0000.24,0001.94,0000.21
2024-01-29 14:32:00,SystemResetWarning,0837.2,5.00,000.00,022.1,021.3,000.0,030.4,023.5,15.3,0000.0,0000.26,0002.00,0000.21
2024-01-29 14:33:00,SystemResetWarning,0837.2,5.00,000.00,022.1,021.2,000.0,030.4,023.5,15.3,0000.0,0000.26,0002.00,0000.21
2024-01-29 14:34:00,SystemResetWarning,0837.3,5.00,000.00,022.1,021.2,000.0,030.4,023.5,15.3,0000.0,0000.27,0002.01,0000.21
2024-01-29 14:35:00,SystemResetWarning,0837.2,5.00,000.00,022.1,021.2,000.0,030.4,023.5,15.3,0000.0,0000.28,0002.02,0000.22
2024-01-29 14:36:00,SystemResetWarning,0837.3,4.99,000.00,022.1,021.2,000.0,030.4,023.5,15.3,0000.0,0000.32,0002.09,0000.24
2024-01-29 14:37:00,SystemResetWarning,0837.3,4.98,000.00,022.1,021.2,000.0,030.4,023.5,15.3,0000.0,0000.34,0002.11,0000.27
2024-01-29 14:38:00,SystemResetWarning,0837.4,5.00,000.00,022.1,021.2,000.0,030.4,023.5,15.3,0000.0,0000.37,0002.20,0000.30
2024-01-29 14:39:00,SystemResetWarning,0837.4,5.01,000.00,022.1,021.2,000.0,030.4,023.5,15.3,0000.0,0000.38,0002.24,0000.32
2024-01-29 14:40:00,SystemResetWarning,0837.5,5.01,000.00,022.1,021.2,000.0,030.4,023.5,15.3,0000.0,0000.41,0002.26,0000.35
2024-01-29 14:41:00,SystemResetWarning,0837.5,5.00,000.00,022.1,021.2,000.0,030.4,023.5,15.3,0000.0,0000.44,0002.02,0000.38
2024-01-29 14:42:00,SystemResetWarning,0837.5,4.99,000.00,022.1,021.2,000.0,030.4,023.5,15.3,0000.0,0000.48,0000.76,0000.40
2024-01-29 14:43:00,SystemResetWarning,0837.5,4.99,000.00,022.1,021.2,000.0,030.4,023.5,15.3,0000.0,0000.50,0000.80,0000.42
2024-01-29 14:44:00,SystemResetWarning,0837.5,4.99,000.00,022.1,021.2,000.0,030.4,023.5,15.3,0000.0,0000.53,0000.86,0000.44
2024-01-29 14:45:00,SystemResetWarning,0837.5,5.01,000.00,022.1,021.2,000.0,030.4,023.5,15.3,0000.0,0000.57,0000.94,0000.47
2024-01-29 14:46:00,SystemResetWarning,0837.5,5.01,000.00,022.1,021.2,000.0,030.4,023.5,15.3,0000.0,0000.60,0000.98,0000.49
2024-01-29 14:47:00,SystemResetWarning,0837.6,5.01,000.00,022.1,021.2,000.0,030.4,023.5,15.3,0000.0,0000.63,0001.02,0000.50
2024-01-29 14:48:00,SystemResetWarning,0837.6,5.01,000.00,022.1,021.2,000.0,030.4,023.5,15.3,0000.0,0000.64,0001.04,0000.51
2024-01-29 14:49:00,SystemResetWarning,0837.6,4.99,000.00,022.1,021.2,000.0,030.4,023.5,15.3,0000.0,0000.64,0001.03,0000.52
2024-01-29 14:50:00,SystemResetWarning,0837.7,4.99,000.00,022.1,021.2,000.0,030.4,023.5,15.3,0000.0,0000.65,0000.95,0000.52
2024-01-29 14:51:00,SystemResetWarning,0837.6,4.99,000.00,022.1,021.2,000.0,030.4,023.5,15.3,0000.0,0000.66,0000.98,0000.53
2024-01-29 14:52:00,SystemResetWarning,0837.6,5.00,000.00,022.1,021.1,000.0,030.4,023.5,15.3,0000.0,0000.66,0001.00,0000.52
2024-01-29 14:53:00,SystemResetWarning,0837.7,5.00,000.00,022.1,021.1,000.0,030.4,023.5,15.3,0000.0,0000.66,0000.99,0000.52
2024-01-29 14:54:00,SystemResetWarning,0837.7,5.01,000.00,022.1,021.1,000.0,030.4,023.5,15.3,0000.0,0000.68,0001.01,0000.52
2024-01-29 14:55:00,SystemResetWarning,0837.7,5.01,000.00,022.1,021.1,000.0,030.4,023.5,15.3,0000.0,0000.66,0000.94,0000.52
2024-01-29 14:56:00,SystemResetWarning,0837.7,5.00,000.00,022.1,021.1,000.0,030.4,023.5,15.4,0000.0,0000.65,0000.92,0000.51
2024-01-29 14:57:00,SystemResetWarning,0837.8,4.99,000.00,022.1,021.1,000.0,030.4,023.5,15.4,0000.0,0000.67,0000.97,0000.51
2024-01-29 14:58:00,SystemResetWarning,0837.7,4.99,000.00,022.1,021.1,000.0,030.4,023.4,15.3,0000.0,0000.66,0000.97,0000.51
2024-01-29 14:59:00,SystemResetWarning,0837.7,4.99,000.00,022.1,021.1,000.0,030.4,023.4,15.4,0000.0,0000.64,0000.93,0000.51
